Green Fast — ZDHA9 — position and weather

sailwx.info

Track history (hours):
 
Tides and Currents Weather Stations Pressure Air Temp Water Temp Dewpoint Dewpoint Depression Visibility Wind Speed Wind Dir Waves Ship Positions

Green Fast

Last reported at 2014-Aug-30 05:12 UTC. Time now 2014-Aug-30 06:32 UTC.
Position N 38°51' E 007°58'.

Length 118 m; draft 7.3 m.

Type: Ship (hazmat cat A). MMSI: 236294000.

Date/timePositionNaut miles runAvg speedWind from/ knotsBaromVisibWave heightAir tempDewpointWater temp
2014-Aug-30 05:12N 38°51' E 007°58'810.3
2014-Aug-30 04:24N 38°50' E 008°09'1210.7
2014-Aug-30 03:17N 38°50' E 008°24'810.8
2014-Aug-30 02:33N 38°50' E 008°34'1110.9
2014-Aug-30 01:33N 38°50' E 008°48'1110.5
2014-Aug-30 00:33N 38°55' E 009°00'10 9.9
2014-Aug-29 23:33N 39°03' E 009°07'9 9.4
2014-Aug-29 22:33N 39°12' E 009°05'1 0.8
2014-Aug-29 21:31N 39°13' E 009°04'0 0.0
2014-Aug-29 20:31N 39°13' E 009°04'0 0.0
2014-Aug-29 19:31N 39°13' E 009°04'0 0.0
2014-Aug-29 18:31N 39°13' E 009°04'0 0.0
2014-Aug-29 17:31N 39°13' E 009°04'0 0.0
2014-Aug-29 16:31N 39°13' E 009°04'0 0.0
2014-Aug-29 15:31N 39°13' E 009°04'0 0.0
2014-Aug-29 14:31N 39°13' E 009°04'0 0.0
2014-Aug-29 13:31N 39°13' E 009°04'0 0.0
2014-Aug-29 12:31N 39°13' E 009°04'0 0.0
2014-Aug-29 11:31N 39°13' E 009°04'0 0.0
2014-Aug-29 10:31N 39°13' E 009°04'0 0.0
2014-Aug-29 09:31N 39°13' E 009°04'0 0.0
2014-Aug-29 08:33N 39°13' E 009°04'7 6.9
2014-Aug-29 07:33N 39°07' E 009°08'1111.5
2014-Aug-29 06:33N 39°02' E 009°22'88 2.2
2014-Aug-27 15:06N 38°28' E 011°05'711.7
2014-Aug-27 14:32N 38°30' E 010°57'1411.9
2014-Aug-27 13:23N 38°36' E 010°41'1011.8
2014-Aug-27 12:33N 38°39' E 010°29'1211.7
2014-Aug-27 11:33N 38°44' E 010°16'1511.5
2014-Aug-27 10:17N 38°50' E 009°58'911.4
2014-Aug-27 09:32N 38°53' E 009°48'1111.8
2014-Aug-27 08:33N 38°57' E 009°34'1312.3
2014-Aug-27 07:32N 39°03' E 009°20'1211.9
2014-Aug-27 06:33N 39°08' E 009°06'5 4.7
2014-Aug-27 05:33N 39°13' E 009°05'0 0.0
2014-Aug-27 04:33N 39°13' E 009°05'0 0.0
2014-Aug-27 03:33N 39°13' E 009°05'0 0.0
2014-Aug-27 02:33N 39°13' E 009°05'0 0.0
2014-Aug-27 01:33N 39°13' E 009°05'0 0.0
2014-Aug-27 00:33N 39°13' E 009°05'0 0.0
2014-Aug-26 23:33N 39°13' E 009°05'0 0.0
2014-Aug-26 22:33N 39°13' E 009°05'0 0.0
2014-Aug-26 21:33N 39°13' E 009°05'0 0.0
2014-Aug-26 20:33N 39°13' E 009°05'0 0.0
2014-Aug-26 19:33N 39°13' E 009°05'0 0.0
2014-Aug-26 18:33N 39°13' E 009°05'0 0.0
2014-Aug-26 17:33N 39°13' E 009°05'0 0.0
2014-Aug-26 16:33N 39°13' E 009°05'0 0.0
2014-Aug-26 15:33N 39°13' E 009°05'0 0.0
2014-Aug-26 14:33N 39°13' E 009°05'2 1.9
2014-Aug-26 13:34N 39°11' E 009°06'9 9.1
2014-Aug-26 12:34N 39°03' E 009°11'1212.0
2014-Aug-26 11:33N 38°53' E 009°19'1211.7
2014-Aug-26 10:33N 38°43' E 009°27'1211.5
2014-Aug-26 09:33N 38°33' E 009°34'1211.9
2014-Aug-26 08:33N 38°23' E 009°43'1211.8
2014-Aug-26 07:34N 38°13' E 009°50'1211.8
2014-Aug-26 06:33N 38°02' E 009°58'1211.8
2014-Aug-26 05:33N 37°52' E 010°06'1111.4
2014-Aug-26 04:33N 37°43' E 010°13'1211.7
2014-Aug-26 03:33N 37°32' E 010°19'1212.1
2014-Aug-26 02:34N 37°20' E 010°23'1211.9
2014-Aug-26 01:33N 37°09' E 010°27'1211.5
2014-Aug-26 00:33N 36°57' E 010°26'1010.4
2014-Aug-25 23:33N 36°48' E 010°21'4 3.1
2014-Aug-25 22:20N 36°48' E 010°16'0 0.0
2014-Aug-25 21:32N 36°48' E 010°16'0 0.0
2014-Aug-25 20:14N 36°48' E 010°16'0 0.0
2014-Aug-25 19:32N 36°48' E 010°16'0 0.0
2014-Aug-24 18:11N 36°48' E 010°16'0 0.0
2014-Aug-24 17:32N 36°48' E 010°16'7 0.4
2014-Aug-23 21:31N 36°47' E 010°25'0 0.0
2014-Aug-23 00:31N 36°47' E 010°25'7 0.4
2014-Aug-22 08:12N 36°48' E 010°16'0 0.0
2014-Aug-21 22:30N 36°48' E 010°16'0 0.0
2014-Aug-21 17:33N 36°48' E 010°16'0 0.0
2014-Aug-21 07:33N 36°48' E 010°16'0 0.0
2014-Aug-20 08:05N 36°48' E 010°16'0 0.0
2014-Aug-20 06:17N 36°48' E 010°16'0 0.0
2014-Aug-20 05:33N 36°48' E 010°16'  
Track history (hours):
 
Tides and Currents Weather Stations Pressure Air Temp Water Temp Dewpoint Dewpoint Depression Visibility Wind Speed Wind Dir Waves Ship Positions

Green Fast

Last reported at 2014-Aug-30 05:12 UTC. Time now 2014-Aug-30 06:32 UTC.
Position N 38°51' E 007°58'.

Length 118 m; draft 7.3 m.

Type: Ship (hazmat cat A). MMSI: 236294000.

Date/timePositionNaut miles runAvg speedWind from/ knotsBaromVisibWave heightAir tempDewpointWater temp
2014-Aug-30 05:12N 38°51' E 007°58'810.3
2014-Aug-30 04:24N 38°50' E 008°09'1210.7
2014-Aug-30 03:17N 38°50' E 008°24'810.8
2014-Aug-30 02:33N 38°50' E 008°34'1110.9
2014-Aug-30 01:33N 38°50' E 008°48'1110.5
2014-Aug-30 00:33N 38°55' E 009°00'10 9.9
2014-Aug-29 23:33N 39°03' E 009°07'9 9.4
2014-Aug-29 22:33N 39°12' E 009°05'1 0.8
2014-Aug-29 21:31N 39°13' E 009°04'0 0.0
2014-Aug-29 20:31N 39°13' E 009°04'0 0.0
2014-Aug-29 19:31N 39°13' E 009°04'0 0.0
2014-Aug-29 18:31N 39°13' E 009°04'0 0.0
2014-Aug-29 17:31N 39°13' E 009°04'0 0.0
2014-Aug-29 16:31N 39°13' E 009°04'0 0.0
2014-Aug-29 15:31N 39°13' E 009°04'0 0.0
2014-Aug-29 14:31N 39°13' E 009°04'0 0.0
2014-Aug-29 13:31N 39°13' E 009°04'0 0.0
2014-Aug-29 12:31N 39°13' E 009°04'0 0.0
2014-Aug-29 11:31N 39°13' E 009°04'0 0.0
2014-Aug-29 10:31N 39°13' E 009°04'0 0.0
2014-Aug-29 09:31N 39°13' E 009°04'0 0.0
2014-Aug-29 08:33N 39°13' E 009°04'7 6.9
2014-Aug-29 07:33N 39°07' E 009°08'1111.5
2014-Aug-29 06:33N 39°02' E 009°22'88 2.2
2014-Aug-27 15:06N 38°28' E 011°05'711.7
2014-Aug-27 14:32N 38°30' E 010°57'1411.9
2014-Aug-27 13:23N 38°36' E 010°41'1011.8
2014-Aug-27 12:33N 38°39' E 010°29'1211.7
2014-Aug-27 11:33N 38°44' E 010°16'1511.5
2014-Aug-27 10:17N 38°50' E 009°58'911.4
2014-Aug-27 09:32N 38°53' E 009°48'1111.8
2014-Aug-27 08:33N 38°57' E 009°34'1312.3
2014-Aug-27 07:32N 39°03' E 009°20'1211.9
2014-Aug-27 06:33N 39°08' E 009°06'5 4.7
2014-Aug-27 05:33N 39°13' E 009°05'0 0.0
2014-Aug-27 04:33N 39°13' E 009°05'0 0.0
2014-Aug-27 03:33N 39°13' E 009°05'0 0.0
2014-Aug-27 02:33N 39°13' E 009°05'0 0.0
2014-Aug-27 01:33N 39°13' E 009°05'0 0.0
2014-Aug-27 00:33N 39°13' E 009°05'0 0.0
2014-Aug-26 23:33N 39°13' E 009°05'0 0.0
2014-Aug-26 22:33N 39°13' E 009°05'0 0.0
2014-Aug-26 21:33N 39°13' E 009°05'0 0.0
2014-Aug-26 20:33N 39°13' E 009°05'0 0.0
2014-Aug-26 19:33N 39°13' E 009°05'0 0.0
2014-Aug-26 18:33N 39°13' E 009°05'0 0.0
2014-Aug-26 17:33N 39°13' E 009°05'0 0.0
2014-Aug-26 16:33N 39°13' E 009°05'0 0.0
2014-Aug-26 15:33N 39°13' E 009°05'0 0.0
2014-Aug-26 14:33N 39°13' E 009°05'2 1.9
2014-Aug-26 13:34N 39°11' E 009°06'9 9.1
2014-Aug-26 12:34N 39°03' E 009°11'1212.0
2014-Aug-26 11:33N 38°53' E 009°19'1211.7
2014-Aug-26 10:33N 38°43' E 009°27'1211.5
2014-Aug-26 09:33N 38°33' E 009°34'1211.9
2014-Aug-26 08:33N 38°23' E 009°43'1211.8
2014-Aug-26 07:34N 38°13' E 009°50'1211.8
2014-Aug-26 06:33N 38°02' E 009°58'1211.8
2014-Aug-26 05:33N 37°52' E 010°06'1111.4
2014-Aug-26 04:33N 37°43' E 010°13'1211.7
2014-Aug-26 03:33N 37°32' E 010°19'1212.1
2014-Aug-26 02:34N 37°20' E 010°23'1211.9
2014-Aug-26 01:33N 37°09' E 010°27'1211.5
2014-Aug-26 00:33N 36°57' E 010°26'1010.4
2014-Aug-25 23:33N 36°48' E 010°21'4 3.1
2014-Aug-25 22:20N 36°48' E 010°16'0 0.0
2014-Aug-25 21:32N 36°48' E 010°16'0 0.0
2014-Aug-25 20:14N 36°48' E 010°16'0 0.0
2014-Aug-25 19:32N 36°48' E 010°16'0 0.0
2014-Aug-24 18:11N 36°48' E 010°16'0 0.0
2014-Aug-24 17:32N 36°48' E 010°16'7 0.4
2014-Aug-23 21:31N 36°47' E 010°25'0 0.0
2014-Aug-23 00:31N 36°47' E 010°25'7 0.4
2014-Aug-22 08:12N 36°48' E 010°16'0 0.0
2014-Aug-21 22:30N 36°48' E 010°16'0 0.0
2014-Aug-21 17:33N 36°48' E 010°16'0 0.0
2014-Aug-21 07:33N 36°48' E 010°16'0 0.0
2014-Aug-20 08:05N 36°48' E 010°16'0 0.0
2014-Aug-20 06:17N 36°48' E 010°16'0 0.0
2014-Aug-20 05:33N 36°48' E 010°16'  

Dump ship's entire track history